Résultats de la compétition "Championnat régional MD" du 04-05-2008 organisée par le club 7807
     
  Télécharger le fichier CSV.  
     
     

 Circuit "A - Homme"

Licence Nom Prénom Temps CN
précédent
Score sur
la course
Différence
2121VANNIERFabrice0:37:1075086548-960
10757MARTELFranck0:39:5851886089+901
2924CALANDOTFrancois0:40:3166296007-622
2120VANNIEREric0:41:0160435934-109
12934THOMASJohann0:42:0259505790-160
7251GRUSELLEFabien0:42:3460955717-378
2158THIBAULTF-Xavier0:43:2149815614+633
2936SANDEVOIRBenoit0:44:3158555467-388
12346GAFFURIJulien0:45:3953215331+10
712BERDADavid0:47:2650315131+100
2151GILLARDHugues0:47:3857235109-614
10361COXAnthony0:47:50N/A5088N/A
10755L'HERITIERJean-Philippe0:47:5159005086-814
2257NOBILIJacques0:49:2453344927-407
1993PERICHONBernard0:49:2656744923-751
12114PANNIERPascal0:50:1157154850-865
7610HEROUARDThierry0:50:4952884789-499
11834BEAUVISAGEAudry0:51:2055124741-771
2787ESNAULTCedric0:51:3546754718+43
9601BESTELThierry0:51:4552414703-538
1982HALLAYDominique0:52:0144124679+267
18959FERNANDES ANTUNESRomeu0:52:2640114642+631
3194ESTIVALJ-Luc0:52:3051114636-475
1978GASNOTLaurent0:52:5156904605-1085
9599THONIERBruno0:53:0446014586-15
2260SAMSONJ-Michel0:53:2952394550-689
11475GODEFROYBruno0:53:5447714515-256
1384HERTZOGTristan0:53:5846304510-120
17150MUZARDMathias0:55:48N/A4362N/A
14553MITHOUARDPatrick0:55:55N/A4352N/A
2221BEAUVISAGEChristoph0:56:2249294318-611
923PREVOSTPatrick0:56:2949344309-625
12698VERDYOlivier0:57:0339914266+275
4181RAUTURIERBenoit0:57:0453464265-1081
12226PINAUDMichel0:59:0238224123+301
7901PORTRONFrederic1:01:5336253933+308
8889GARNIERVincent1:02:0141463924-222
1977FISCHERFrederic1:02:3741143887-227
7902PORTRONAlain1:02:5140473872-175
16717GAIGNONRichard1:04:3724673766+1299
18211BLOTGregory1:04:51N/A3753N/A
1945PHILIPPOTEtienne1:05:1532983730+432
2072GRANIERDamien1:05:2837523718-34
4357ROULLEAUXAlain1:06:2750523663-1389
11997DELEIRISFlorian1:06:5840353634-401
8125STRECCyril1:07:1129863623+637
3030SABATIERFrancois1:08:4537143540-174
8300DUFFAUDPhilippe1:09:3636483497-151
19154DUCHENEDavid1:09:5026523485+833
10451RAIMBAULTPhilippe1:10:0040753477-598
18480PAULETSerge1:10:1839353462-473
3781TOXEPhilippe1:10:5035753436-139
16264MARTYPatrick1:11:0737523422-330
14688CARUELFrancois1:11:1137833419-364
18809BRINDEAUArnaud1:12:4838073343-464
12379MONTAGARDFrederic1:12:51N/A3341N/A
8548CLOUARDFrederic1:13:1946543320-1334
12241VIONLudovic1:14:3832303261+31
1367MOLINIERJ-Luc1:14:4641333255-878
1984HALLAYJ-Pierre1:15:0630423241+199
9126NOYEyal1:16:3333513179-172
10619GAUTHIERPierre1:17:2132683146-122
18768BONANNOThibaut1:17:33N/A3138N/A
3353BONNEAUPaul1:19:2245233066-1457
14005ABRIOLDaniel1:19:38N/A3056N/A
17113LEROUZICGwenael1:20:1227133035+322
2928COMPERELaurent1:20:2233303028-302
13738CHEVILLARDJohann1:20:4737973013-784
8990GUESDONMaxime1:20:4937983011-787
19094LEMAIREYann-pierrick1:23:48N/A2904N/A
6421LALLIERAntoine1:24:2341722884-1288
3989SABATIERAntoine1:25:0026552863+208
4810GROCAlain1:28:2538482753-1095
11302CARRIELaurent1:30:2826982690-8
930SIMONETJean1:31:4542712653-1618
19674GRANCOINMarc1:32:52N/A2621N/A
2152LAUREATRene1:33:0732402614-626
19570TOULEMONDEBruno1:33:43N/A2597N/A
1379CRENNChristian1:33:4430242596-428
14683PENAUDThierry1:35:16N/A2555N/A
17847GAUTTIERWilly1:35:3436512547-1104
19023GAUQUELINJerome1:35:5835502536-1014
19568PERROTLaurent1:36:22N/A2526N/A
1381DIEUDONNERoland1:37:4539962490-1506
1938LEFRANCOISGerard1:38:1736652476-1189
1383HERTZOGJacques1:40:0034912434-1057
2018ALARZALuis1:42:0136402386-1254
10338ROGIERYann1:43:4824922345-147
1929CHINCHOLEPaul1:48:2132502246-1004
935TESTOUDPhilippe1:48:2835052244-1261
17649LABROUSSEMichel1:57:3928432069-774
19122DEGEZQuentin2:09:1025751884-691
15232ROGERVincent2:17:3730781768-1310
19586NICOLASOlivier3:06:30N/A1305N/A
12117BRASSARTEricN/A58770-5877
19329ZATTARaphaëlN/AN/A0N/A
19101MACLEBrunoN/A44630-4463
9687BOTHORELPierreN/A55560-5556
19520ROCHEFabienN/AN/A0N/A
1386LELOUPPhilippeN/A43300-4330
2198HURTAUDJ-YvesN/A57590-5759
19344DAEMAdriaanN/AN/A0N/A
12558DUBOISPhilippeN/A49990-4999

  Indice de confiance du circuit (moyenne des différences entre CN et score sur la course des 3 à 10 premiers) : 63




 Circuit "B - Femme"

Licence Nom Prénom Temps CN
précédent
Score sur
la course
Différence
2179OLIVIERSandra0:46:2248655609+744
2920ANTOINEChristine0:47:4053105456+146
2091VANNIERValerie0:48:5145385324+786
14675COQUETChristelle0:50:5238415113+1272
1857GUILLONSophie0:53:2541024869+767
13244VARRONStephanie0:54:2146924785+93
16117TARDYLaetitia0:56:2347524613-139
1854GUILLONAlain0:57:0339454559+614
14648DIDOUSophie0:58:2549354452-483
1956WIBARTMartine0:59:4840054349+344
8921ROULLEAUXMaeva1:00:1646464316-330
8550CLOUARDCamille1:01:3351174226-891
10811BERREHARAnne1:03:2742904099-191
2032BAROUXCeline1:06:4650193896-1123
886GIRECamille1:08:4744113781-630
3200RAUTURIERNathalie1:13:0635233558+35
14676BORCHORST RICARDClarissa1:16:1440473412-635
18059BRUNDU-LEMAIRESarah1:17:3933143350+36
8890BARSANTIPatricia1:18:1742323322-910
3354BONNEAUCatherine1:21:3530813188+107
17764CHOUKROUNGyongyike1:22:4132643146-118
1380DIEUDONNEMadeleine1:24:4141773071-1106
4373BONNEAUMathilde1:26:3638493003-846
8920TOUZAIN ROULLEAUXIsabelle1:33:3238212781-1040
8549CLOUARDFlorence1:35:1030242733-291
18060LE CAMMarion1:35:29N/A2724N/A
19215PASSELERGUEMarianne1:37:0425732680+107
7520BOUCHESylvie1:37:4825582659+101
17309BESTELFlorence1:42:2430452540-505
11688PINCHONLara1:47:4229942415-579
12343MALASSIGNEElfege1:55:0923282259-69
9686NOY-GSELLJessica2:05:5329542066-888
14685MARTYCelia2:11:4923031973-330
14721SILVESTROM-Laure2:33:57N/A1689N/A
19571TOULEMONDEAgnès2:41:53N/A1607N/A
922PREVOSTPascaleN/A51540-5154
3195CLETArletteN/A34410-3441
3990MOLINIERFrederiqueN/A30400-3040
14002DUBOISSylvieN/A22020-2202
17770CARUELVivianeN/A20440-2044
19003PIERSONBlandineN/A21270-2127
14576GAFFURIA-LaureN/A29360-2936
18506BENHIDACécileN/AN/A0N/A
13633MONTAGARDCeciliaN/AN/A0N/A

  Indice de confiance du circuit (moyenne des différences entre CN et score sur la course des 3 à 10 premiers) : 296




 Circuit "C - Court Technique"

Licence Nom Prénom Temps CN
précédent
Score sur
la course
Différence
11061SANDEVOIRLuc0:36:1441454934+789
8551CLOUARDLucile0:37:2441274780+653
8922ROULLEAUXNoemie0:37:4149454744-201
4182RAUTURIERMaxime0:50:3450473535-1512
13391ROGERAlexandre0:53:3346853338-1347
13740BEAUVISAGEFabienne1:01:4727922893+101
6574HALLAYDenis1:11:0424562515+59
6113GROCClaire1:21:4630192186-833
19788MEYKevin1:28:38N/A2017N/A
295PEETERSSimone1:33:5530231903-1120
19330DIMECHMaxime1:44:3921971708-489
15228CHAUVINEAUChristine1:55:4721131544-569
19569BARRAUDNicolasN/AN/A0N/A
13744PAULETGuillaumeN/A39620-3962
10303BEAUDENONCedricN/A41540-4154

  Indice de confiance du circuit (moyenne des différences entre CN et score sur la course des 3 à 10 premiers) : 788




 Circuit "D - Court Facile"

Licence Nom Prénom Temps CN
précédent
Score sur
la course
Différence
11559ROULLEAUXJulie0:31:2037183454-264
16688PANNIERQuentin0:38:2013882823+1435
14751DOURDOU-VARRONMalo0:42:2521042552+448
6487MOLINIERCaroline0:45:4126672369-298
17308BESTELArnault0:47:5919302256+326
8552CLOUARDAugustin0:59:3020311819-212
10758BESTELSandra1:01:2920201760-260
19362TOULEMONDECamille1:04:4018091674-135
17774MARTYDorine1:06:3314991626+127
11305NOY-GSELLArielle1:08:4124651576-889
17115LEROUZICNolwenn1:10:324471534+1087
19259LIMACandida1:17:1610461401+355
11311GARNIER-BARSANTIClara1:18:3720111377-634
14681ROGERAymeric1:19:5829191353-1566
17114LEROUZICMaelle1:46:03N/A1021N/A
17846GAUTTIERJulianeN/A10010-1001
19884VERDYTifennN/AN/A0N/A
19260CARUELMarieN/AN/A0N/A

  Indice de confiance du circuit (moyenne des différences entre CN et score sur la course des 3 à 10 premiers) : 355






 Retour